N76SAM VGHS-VGEG

Flight info

Callsign N76SAM
Flight time 0h 24m
Altitude 15000
Route ADMIL2 ADMIL G463 ONEKA DCT KAFCO DCT OLRIN DCT KANIA
Aircraft A20N/M-SDE2E3FGHIRWXY/LB1

Departure

Time 2026-05-08 05:37
Airport Hazrat Shahjalal International Airport (VGHS)

Arrival

Time 2026-05-08 06:01
Airport Shah Amanat International Airport (VGEG)
Time Latitude Longitude Altitude Speed Heading
2026-05-08 05:36 23.85433 90.38913 34 ft 18 kts 144°
2026-05-08 05:36 23.85113 90.39163 35 ft 101 kts 143°
2026-05-08 05:36 23.84307 90.39798 45 ft 181 kts 144°
2026-05-08 05:37 23.83192 90.40674 801 ft 216 kts 144°
2026-05-08 05:37 23.81901 90.41750 1830 ft 237 kts 141°
2026-05-08 05:37 23.80578 90.42910 3121 ft 254 kts 140°
2026-05-08 05:37 23.79165 90.44184 4035 ft 285 kts 140°
2026-05-08 05:38 23.77517 90.45686 4415 ft 328 kts 140°
2026-05-08 05:38 23.75765 90.47281 4707 ft 328 kts 141°
2026-05-08 05:38 23.74014 90.48872 4838 ft 330 kts 141°
2026-05-08 05:38 23.72249 90.50470 4898 ft 329 kts 141°
2026-05-08 05:39 23.70478 90.52068 4924 ft 330 kts 141°
2026-05-08 05:39 23.68709 90.53661 4935 ft 329 kts 141°
2026-05-08 05:39 23.66942 90.55252 4938 ft 330 kts 141°
2026-05-08 05:39 23.65166 90.56848 4939 ft 331 kts 141°
2026-05-08 05:40 23.63396 90.58438 4946 ft 329 kts 141°
2026-05-08 05:40 23.61622 90.60035 5230 ft 331 kts 141°
2026-05-08 05:40 23.59842 90.61637 6041 ft 333 kts 141°
2026-05-08 05:40 23.58046 90.63252 7111 ft 337 kts 141°
2026-05-08 05:41 23.56216 90.64894 8326 ft 345 kts 141°
2026-05-08 05:41 23.54333 90.66581 9513 ft 355 kts 141°
2026-05-08 05:41 23.52402 90.68311 10634 ft 363 kts 141°
2026-05-08 05:41 23.50437 90.70078 11774 ft 369 kts 142°
2026-05-08 05:42 23.48443 90.71875 12899 ft 374 kts 142°
2026-05-08 05:42 23.46422 90.73695 13921 ft 377 kts 142°
2026-05-08 05:42 23.44389 90.75525 14297 ft 383 kts 143°
2026-05-08 05:42 23.42283 90.77412 14622 ft 404 kts 143°
2026-05-08 05:43 23.40030 90.79419 14799 ft 432 kts 143°
2026-05-08 05:43 23.37640 90.81546 14869 ft 451 kts 143°
2026-05-08 05:43 23.35243 90.83687 14901 ft 450 kts 143°
2026-05-08 05:43 23.32797 90.85876 14915 ft 450 kts 143°
2026-05-08 05:44 23.30407 90.88019 14919 ft 451 kts 143°
2026-05-08 05:44 23.27983 90.90192 14920 ft 451 kts 142°
2026-05-08 05:44 23.25562 90.92365 14922 ft 450 kts 143°
2026-05-08 05:44 23.23143 90.94535 14919 ft 450 kts 143°
2026-05-08 05:45 23.20723 90.96702 14926 ft 451 kts 142°
2026-05-08 05:45 23.18311 90.98878 14918 ft 450 kts 142°
2026-05-08 05:45 23.15909 91.01061 14922 ft 450 kts 142°
2026-05-08 05:45 23.13509 91.03250 14922 ft 450 kts 142°
2026-05-08 05:46 23.11103 91.05445 14918 ft 451 kts 142°
2026-05-08 05:46 23.08704 91.07634 14914 ft 450 kts 142°
2026-05-08 05:46 23.06305 91.09825 14914 ft 450 kts 142°
2026-05-08 05:46 23.03908 91.12014 14916 ft 450 kts 142°
2026-05-08 05:47 23.01535 91.14181 14917 ft 450 kts 142°
2026-05-08 05:47 22.99143 91.16364 14913 ft 450 kts 142°
2026-05-08 05:47 22.96744 91.18552 14912 ft 450 kts 142°
2026-05-08 05:47 22.94342 91.20739 14912 ft 450 kts 142°
2026-05-08 05:48 22.91944 91.22921 14905 ft 450 kts 142°
2026-05-08 05:48 22.89549 91.25101 14909 ft 449 kts 142°
2026-05-08 05:48 22.87150 91.27285 14911 ft 450 kts 142°
2026-05-08 05:48 22.84753 91.29465 14914 ft 450 kts 142°
2026-05-08 05:49 22.82354 91.31644 14916 ft 450 kts 142°
2026-05-08 05:49 22.79956 91.33822 14915 ft 450 kts 142°
2026-05-08 05:49 22.77560 91.35998 14916 ft 450 kts 142°
2026-05-08 05:49 22.75160 91.38177 14910 ft 450 kts 142°
2026-05-08 05:50 22.72761 91.40354 14908 ft 450 kts 142°
2026-05-08 05:50 22.70359 91.42532 14909 ft 450 kts 142°
2026-05-08 05:50 22.67960 91.44706 14907 ft 449 kts 142°
2026-05-08 05:50 22.65560 91.46880 14908 ft 450 kts 142°
2026-05-08 05:51 22.63157 91.49055 14907 ft 450 kts 142°
2026-05-08 05:51 22.60756 91.51228 14911 ft 450 kts 142°
2026-05-08 05:51 22.58384 91.53371 14909 ft 449 kts 142°
2026-05-08 05:51 22.55980 91.55539 14907 ft 449 kts 142°
2026-05-08 05:52 22.53576 91.57704 14913 ft 450 kts 142°
2026-05-08 05:52 22.51171 91.59868 14912 ft 450 kts 142°
2026-05-08 05:52 22.48762 91.62034 14914 ft 449 kts 142°
2026-05-08 05:52 22.46358 91.64195 14890 ft 449 kts 142°
2026-05-08 05:53 22.43983 91.66329 14875 ft 436 kts 142°
2026-05-08 05:53 22.41758 91.68341 14707 ft 391 kts 141°
2026-05-08 05:53 22.40138 91.70453 14242 ft 355 kts 117°
2026-05-08 05:53 22.39583 91.72915 13779 ft 326 kts 88°
2026-05-08 05:54 22.40051 91.75192 13303 ft 300 kts 69°
2026-05-08 05:54 22.40795 91.77206 12743 ft 277 kts 67°
2026-05-08 05:54 22.41490 91.79077 12050 ft 260 kts 69°
2026-05-08 05:54 22.41981 91.80893 11198 ft 247 kts 83°
2026-05-08 05:55 22.42126 91.82731 10165 ft 245 kts 91°
2026-05-08 05:55 22.42066 91.84570 9121 ft 240 kts 96°
2026-05-08 05:55 22.41880 91.86299 8196 ft 225 kts 99°
2026-05-08 05:55 22.41622 91.87937 7101 ft 218 kts 104°
2026-05-08 05:56 22.41125 91.89471 6002 ft 215 kts 115°
2026-05-08 05:56 22.40450 91.90869 5181 ft 202 kts 120°
2026-05-08 05:56 22.39746 91.92114 4459 ft 189 kts 123°
2026-05-08 05:56 22.39035 91.93263 3712 ft 183 kts 124°
2026-05-08 05:57 22.38309 91.94382 3089 ft 180 kts 124°
2026-05-08 05:57 22.37482 91.95409 2755 ft 184 kts 150°
2026-05-08 05:57 22.36286 91.95543 2601 ft 175 kts 205°
2026-05-08 05:57 22.35425 91.94661 2539 ft 172 kts 235°
2026-05-08 05:58 22.34735 91.93669 2495 ft 161 kts 236°
2026-05-08 05:58 22.34062 91.92693 2446 ft 165 kts 236°
2026-05-08 05:58 22.33379 91.91689 2229 ft 164 kts 237°
2026-05-08 05:58 22.32681 91.90724 2017 ft 160 kts 233°
2026-05-08 05:59 22.31974 91.89823 1801 ft 159 kts 232°
2026-05-08 05:59 22.31247 91.88926 1619 ft 151 kts 231°
2026-05-08 05:59 22.30563 91.88101 1418 ft 149 kts 231°
2026-05-08 05:59 22.29877 91.87279 1258 ft 148 kts 230°
2026-05-08 06:00 22.29192 91.86446 1055 ft 148 kts 231°
2026-05-08 06:00 22.28499 91.85610 851 ft 147 kts 230°
2026-05-08 06:00 22.27832 91.84808 634 ft 142 kts 231°
2026-05-08 06:00 22.27159 91.84002 422 ft 147 kts 231°
2026-05-08 06:01 22.26475 91.83161 243 ft 148 kts 230°
2026-05-08 06:01 22.25820 91.82369 56 ft 132 kts 229°
2026-05-08 06:01 22.25297 91.81739 23 ft 73 kts 228°
2026-05-08 06:01 22.25047 91.81434 24 ft 40 kts 229°
2026-05-08 06:02 22.24914 91.81271 21 ft 20 kts 229°
2026-05-08 06:02 22.24817 91.81151 23 ft 26 kts 229°
2026-05-08 06:02 22.24688 91.81084 21 ft 19 kts 153°
2026-05-08 06:02 22.24590 91.81182 23 ft 21 kts 120°
2026-05-08 06:03 22.24643 91.81308 23 ft 24 kts 48°
2026-05-08 06:03 22.24750 91.81435 23 ft 23 kts 49°
2026-05-08 06:03 22.24739 91.81536 26 ft 0 kts 143°